Metcalfe, MS

12:19 PM CDT on August 31, 2016 (GMT -0500)
Mid Delta Regional

Weather History for KGLH - December, 2012

Change the Weather History Date:

Monday, December 17, 2012

  Actual Average Record
Temperature  
Mean Temperature 55 °F 45 °F  
Max Temperature 67 °F 54 °F 80 °F (1924)
Min Temperature 43 °F 35 °F 13 °F (1989)
Degree Days  
Heating Degree Days 10 20  
Month to date heating degree days 145 321  
Since 1 July heating degree days 684 783  
Cooling Degree Days 0 0  
Month to date cooling degree days 7 0  
Year to date cooling degree days 2453 2186  
Growing Degree Days 6 (Base 50)    
Moisture  
Dew Point 53 °F    
Average Humidity 72    
Maximum Humidity 100    
Minimum Humidity 44    
Precipitation  
Precipitation 0.00 in 0.18 in 4.05 in (1931)
Month to date precipitation 3.27 3.35  
Year to date precipitation 39.52 50.37  
Sea Level Pressure  
Sea Level Pressure 29.78 in    
Wind  
Wind Speed 9 mph (SW)    
Max Wind Speed 21 mph    
Max Gust Speed 25 mph    
Visibility 10 miles    
Events      
T = Trace of Precipitation, MM = Missing Value Source: NWS Daily Summary

Daily Weather History Graph

Daily Weather History Graph

Search for Another Location

Airport or City:

Trip Planner

Search our weather history database for the weather conditions in past years. The results will help you decide how hot, cold, wet, or windy it might be!

Date:

Astronomy

Dec. 17, 2012 Rise Set
Actual Time 7:02 AM CST 4:58 PM CST
Civil Twilight 6:34 AM CST 5:26 PM CST
Nautical Twilight 6:03 AM CST 5:57 PM CST
Astronomical Twilight 5:33 AM CST 6:27 PM CST
Moon 10:22 AM CST (12/17) 10:06 PM CST (12/17)
Length of Visible Light 10h 51m
Length of Day
9h 56m
Waxing Crescent, 25% of the Moon is Illuminated
Dec 17
Waxing Crescent
Dec 19
First Quarter
Dec 28
Full
Jan 4
Last Quarter
Jan 11
New

Hourly Weather History & Observations

Time (CST) Temp. Windchill Dew Point Humidity Pressure Visibility Wind Dir Wind Speed Gust Speed Precip Events Conditions
12:53 AM 61.0 °F - 59.0 °F 93% 29.79 in 10.0 mi SW 9.2 mph - N/A   Overcast
1:53 AM 60.1 °F - 59.0 °F 96% 29.78 in 10.0 mi SSW 9.2 mph - N/A   Overcast
2:38 AM 60.8 °F - 59.0 °F 94% 29.76 in 9.0 mi South 6.9 mph - N/A   Overcast
2:53 AM 60.1 °F - 59.0 °F 96% 29.78 in 10.0 mi South 6.9 mph - N/A   Overcast
3:21 AM 59.0 °F - 59.0 °F 100% 29.76 in 10.0 mi South 4.6 mph - N/A   Overcast
3:53 AM 59.0 °F - 57.9 °F 96% 29.77 in 9.0 mi South 5.8 mph - N/A   Overcast
4:21 AM 59.0 °F - 57.2 °F 94% 29.74 in 8.0 mi South 6.9 mph - N/A   Overcast
4:29 AM 59.0 °F - 57.2 °F 94% 29.74 in 9.0 mi SSW 8.1 mph - N/A   Overcast
4:53 AM 60.1 °F - 57.9 °F 93% 29.75 in 10.0 mi SW 8.1 mph - N/A   Overcast
5:12 AM 59.0 °F - 57.2 °F 94% 29.74 in 10.0 mi SSW 8.1 mph - N/A   Overcast
5:53 AM 59.0 °F - 57.9 °F 96% 29.77 in 10.0 mi SSW 8.1 mph - N/A   Overcast
6:46 AM 57.2 °F - 57.2 °F 100% 29.74 in 10.0 mi SSW 10.4 mph - N/A   Overcast
6:53 AM 57.9 °F - 57.0 °F 97% 29.76 in 10.0 mi SSW 8.1 mph - N/A   Overcast
7:53 AM 55.9 °F - 55.0 °F 97% 29.76 in 6.0 mi South 6.9 mph - N/A   Mostly Cloudy
8:53 AM 59.0 °F - 55.9 °F 90% 29.76 in 10.0 mi SSW 12.7 mph - N/A   Mostly Cloudy
9:32 AM 60.8 °F - 57.2 °F 88% 29.74 in 10.0 mi SW 13.8 mph - N/A   Scattered Clouds
9:53 AM 62.1 °F - 57.0 °F 84% 29.76 in 10.0 mi SW 16.1 mph - N/A   Partly Cloudy
10:44 AM 62.6 °F - 55.4 °F 77% 29.73 in 10.0 mi WSW 17.3 mph - N/A   Mostly Cloudy
10:53 AM 63.0 °F - 55.0 °F 75% 29.76 in 10.0 mi WSW 18.4 mph 25.3 mph N/A   Mostly Cloudy
11:38 AM 62.6 °F - 53.6 °F 72% 29.73 in 10.0 mi West 11.5 mph - N/A   Scattered Clouds
11:53 AM 63.0 °F - 54.0 °F 72% 29.75 in 10.0 mi West 12.7 mph - N/A   Clear
12:53 PM 64.9 °F - 51.1 °F 61% 29.73 in 10.0 mi West 12.7 mph - N/A   Clear
1:53 PM 66.0 °F - 46.9 °F 50% 29.72 in 10.0 mi West 11.5 mph - N/A   Clear
2:53 PM 66.0 °F - 45.0 °F 47% 29.73 in 10.0 mi West 15.0 mph - N/A   Clear
3:53 PM 64.9 °F - 43.0 °F 45% 29.76 in 10.0 mi WNW 13.8 mph 23.0 mph N/A   Clear
6:53 PM 53.1 °F - 45.0 °F 74% 29.83 in 10.0 mi NW 8.1 mph - N/A   Clear
7:53 PM 50.0 °F - 44.1 °F 80% 29.85 in 10.0 mi NNW 6.9 mph - N/A   Clear
8:53 PM 50.0 °F - 44.1 °F 80% 29.86 in 10.0 mi WNW 3.5 mph - N/A   Clear
9:53 PM 46.9 °F - 44.1 °F 90% 29.89 in 9.0 mi Calm Calm - N/A   Clear
10:53 PM 48.0 °F - 43.0 °F 83% 29.91 in 10.0 mi Calm Calm - N/A   Clear
11:53 PM 44.1 °F 40.1 °F 39.9 °F 85% 29.92 in 10.0 mi WSW 6.9 mph - N/A   Clear